Regional Weather Roundup
Issued by NWS

Home | Current Version | Previous Version | Text Only | Print | Product List | Glossary Off
Versions: 1 2 3 4 5 6 7 8 9 10 11 12 13 14 15 16 17 18 19 20 21 22 23 24 25 26 27 28 29 30 31 32 33 34 35 36 37 38 39 40 41 42 43 44 45 46 47 48 49 50

271
ASUS45 KABQ 212001
RWRNM
NEW MEXICO REGIONAL WEATHER ROUNDUP
NATIONAL WEATHER SERVICE ALBUQUERQUE NM
200 PM MDT MON AUG 21 2017

NOTE: "FAIR" MEANS FEW OR NO CLOUDS BELOW 12,000 FEET AGL WITH NO
       SIGNIFICANT WEATHER OR OBSTRUCTIONS TO VISION.

      THIS PRODUCT IS RELEASED AS TWO VERSIONS.  ONE VERSION NEAR
      THE TOP OF THE HOUR CONTAINING PRELIMINARY DATA FROM ALBUQUERQUE
      AND OTHER STATIONS.  A FINAL VERSION WITH ADDITIONAL DATA IS
      ISSUED ABOUT 10 MINUTES AFTER THE HOUR.

NMZ501-503-504-510>518-212100-
NORTHWEST PLATEAU/NORTHCENTRAL MOUNTAINS

CITY           SKY/WX    TMP DP  RH WIND       PRES   REMARKS
FARMINGTON     FAIR      78  51  38 W8        30.20F
LOS ALAMOS     PTSUNNY   67  54  61 SE8       30.33F
SANTA FE       FAIR      70  58  65 SW10      30.28S
TAOS           CLOUDY    70  55  59 W10         N/A
ANGEL FIRE     FAIR      68  48  48 CALM      30.37F

$$
NMZ402-403-502-505>509-212100-
WESTCENTRAL MOUNTAINS/SOUTHWEST MOUNTAINS

CITY           SKY/WX    TMP DP  RH WIND       PRES   REMARKS
GALLUP         PTSUNNY   75  47  36 MISG      30.28F
GRANTS         CLOUDY    72  48  42 S3        30.31S
SILVER CITY    PTSUNNY   77  57  49 CALM      30.23F

$$
NMZ407-409-411-412-212100-
SOUTHERN DESERTS

CITY           SKY/WX    TMP DP  RH WIND       PRES   REMARKS
DEMING         FAIR      81  61  50 VRB5      30.17F
LAS CRUCES     PTSUNNY   78  63  60 CALM      30.19F
HOLLOMAN AFB   FAIR      81  65  57 S7        30.18F
ALAMOGORDO     FAIR      81  63  54 S10       30.18F
T OR C         FAIR      83  54  36 S8        30.16F

$$
NMZ519>523-212100-
CENTRAL VALLEYS/CENTRAL HIGHLANDS

CITY           SKY/WX    TMP DP  RH WIND       PRES   REMARKS
ALBUQUERQUE    FAIR      73  57  57 VRB5      30.24F
DOUBLE EAGLE   PTSUNNY   72  57  60 CALM      30.27F
CLINES CORNERS PTSUNNY   71  56  58 VRB6      30.32S
BELEN          NOT AVBL
SOCORRO        NOT AVBL

$$
NMZ524>526-539-540-212100-
SOUTHCENTRAL MOUNTAINS

CITY           SKY/WX    TMP DP  RH WIND       PRES   REMARKS
RUIDOSO        PTSUNNY   73  54  49 SW15      30.33F

$$
NMZ527>531-212100-
NORTHEAST HIGHLANDS/NORTHEAST PLAINS

CITY           SKY/WX    TMP DP  RH WIND       PRES   REMARKS
LAS VEGAS      FAIR      71  56  58 SW13      30.29S
RATON          FAIR      75  54  47 VRB6      30.22F
CLAYTON        FAIR      78  62  57 SW17G25   30.15S

$$
NMZ532>537-212100-
EASTCENTRAL PLAINS

CITY           SKY/WX    TMP DP  RH WIND       PRES   REMARKS
SANTA ROSA     MOCLDY    76  62  61 SE7       30.17F
TUCUMCARI      PTSUNNY   83  66  56 S13       30.12S
CANNON AFB     PTSUNNY   77  69  75 S15       30.19S
CLOVIS AIRPORT CLOUDY    77  66  68 S16       30.19S

$$
NMZ028-029-538-212100-
SOUTHEAST PLAINS

CITY           SKY/WX    TMP DP  RH WIND       PRES   REMARKS
ROSWELL        FAIR      84  64  50 S12G23    30.13F
ARTESIA        FAIR      82  64  54 SE13      30.13F
CARLSBAD       FAIR      81  69  67 SE12      30.12F
HOBBS          PTSUNNY   81  64  57 S12       30.16F


$$




USA.gov is the U.S. government's official web portal to all federal, state and local government web resources and services.